Regional Weather Roundup
Issued by NWS Green Bay, WI

Home | Current Version | Previous Version | Graphics & Text | Print | Product List | Glossary Off
Versions: 1 2 3 4 5 6 7 8 9 10 11 12 13 14 15 16 17 18 19 20 21 22 23 24 25 26 27 28 29 30 31 32 33 34 35 36 37 38 39 40 41 42 43 44 45 46 47 48 49 50

000
ASUS43 KGRB 292011
RWRGRB

NORTH-CENTRAL AND NORTHEAST WISCONSIN REGIONAL WEATHER ROUNDUP
NATIONAL WEATHER SERVICE GREEN BAY WI
300 PM CDT MON MAY 29 2017

WIZ005-009-010>012-018-019-292100-
NORTH CENTRAL WISCONSIN

CITY           SKY/WX    TMP DP  RH WIND       PRES   REMARKS
IRONWOOD       CLOUDY    59  53  80 W16G23    29.68S
MANITOWISH WTR PTSUNNY   58  55  87 W12G20    29.69F
ARBOR VITAE    MOSUNNY   57  52  85 W8        29.70S
EAGLE RIVER    LGT RAIN  56  47  71 W14G20    29.69R
LAND O LAKES   LGT RAIN  54  51  89 W8        29.70R
RHINELANDER    PTSUNNY   61  50  67 W20G28    29.71R
PHILLIPS       PTSUNNY   60  51  69 W12G21    29.71S
ANTIGO         CLOUDY    57  52  81 W13G24    29.74S
TOMAHAWK       MOSUNNY   59  49  69 W12G21    29.73R
MERRILL        PTSUNNY   61  49  64 W15G23    29.74R
$$

WIZ013-073-292100-
NORTHEAST WISCONSIN

CITY           SKY/WX    TMP DP  RH WIND       PRES   REMARKS
IRON MOUNTAIN  LGT RAIN  60  45  57 SW14G24   29.65R
MARINETTE      NOT AVBL
OCONTO         MOSUNNY   62  47  58 W16G24    29.72R
$$

WIZ017-030-035>037-045-292100-
CENTRAL WISCONSIN

CITY           SKY/WX    TMP DP  RH WIND       PRES   REMARKS
MEDFORD        RAIN      58  47  67 W13G22    29.75S
WAUSAU         PTSUNNY   62  47  57 W21G26    29.73S
MOSINEE        PTSUNNY   63  48  59 W20G28    29.76S
MARSHFIELD     LGT RAIN  57  47  69 W16G25    29.76R
WISC RAPIDS    PTSUNNY   64  48  56 W12G18    29.78F
STEVENS POINT  PTSUNNY   60  48  64 W9G17     29.76F
WAUPACA        PTSUNNY   67  47  48 SW20G26   29.77R
SHAWANO        PTSUNNY   65  52  62 W15G24    29.74S
CLINTONVILLE   LGT RAIN  55  48  76 W8        29.76R
WAUTOMA        PTSUNNY   64  49  57 W13       29.79
$$

WIZ038-039-048-051-292100-
FOX VALLEY

CITY           SKY/WX    TMP DP  RH WIND       PRES   REMARKS
NWS GREEN BAY  PTSUNNY   67  51  56 W16G23    29.74R
APPLETON       PTSUNNY   64  45  48 W17G23    29.75R
OSHKOSH        PTSUNNY   66  46  48 W16G24    29.77R
FOND DU LAC    PTSUNNY   67  43  41 W20G28    29.77S
$$

WIZ022-050-052-292100-
EAST CENTRAL WISCONSIN

CITY           SKY/WX    TMP DP  RH WIND       PRES   REMARKS
EPHRAIM        FAIR     N/A N/A N/A SW10G20   29.68S
WASHINGTON ISL HVY RAIN  56  51  85 SW9G22    29.67S
STURGEON BAY   MOSUNNY   65  51  60 SW20G26   29.71R
MANITOWOC      MOSUNNY   66  47  50 W14G22    29.76R
SHEBOYGAN      PTSUNNY   67  49  52 W17G28    29.77S
$$

LMZ563-521-522-541>543-292100-
LAKESHORE

STATION/POSITION TIME  TEMP    WIND        PRES    VSBY  WAVE
                       AIR SEA DIR/SP/G                  HT/PER
                 (UTC) (F)     (DEG/KT/KT) (MB)    (MI)  (FT/S)
SHEBOYGAN LKSHOR 2000   66     260/ 21/ 24 1007.7R
KEWAUNEE LKSHORE 1942   65     260/  9/ 19 1006.5R
NORTHPORT PIER   1940   66     250/  8/ 19 1004.7R
N MID LAKE BUOY  1950   47 41  220/ 12/ 14 1006.5R         2/ 4
CHAMBERS ISLAND  1940   65     200/ 11/ 16 1004.4R
MENOMINEE LKSHOR 1936          240/ 17/ 22 1004.4R
$$



USA.gov is the U.S. government's official web portal to all federal, state and local government web resources and services.